FW5449 Weather Reports


Display with metric or nautical units.
time (UTC)temp
F
wind
direction
speed
MPH
gust
MPH
rain 1hr
in
rain 24hr
in
rain mn
in
humidity
%
barometer
mb
20260904044046 56 124 3.0 6.0 0.00 0.29 0.29 90 1008.9
20260904043548 56 165 3.0 6.0 0.00 0.29 0.29 90 1008.9
20260904043046 56 141 3.0 6.0 0.00 0.29 0.29 90 1008.8
20260904042545 56 80 3.0 7.0 0.00 0.29 0.29 90 1008.8
20260904042045 56 137 3.0 7.0 0.01 0.29 0.29 90 1008.8
20260904041806 56 139 3.0 6.0 0.01 0.29 0.29 90 1008.9
20260904041043 56 141 3.0 10.0 0.01 0.29 0.29 90 1008.9
20260904040542 56 126 3.0 10.0 0.01 0.29 0.29 90 1008.9
20260904040042 56 106 2.0 5.0 0.01 0.29 0.29 89 1009.0
20260904035544 56 108 3.0 5.0 0.01 0.29 0.29 89 1008.9
20260904035044 56 126 2.0 5.0 0.01 0.29 0.29 90 1008.9
20260904034544 56 128 2.0 5.0 0.01 0.29 0.29 90 1008.9
20260904034038 56 107 2.0 5.0 0.01 0.29 0.29 90 1008.8
20260904033540 56 123 2.0 5.0 0.01 0.29 0.29 90 1008.9
20260904033036 56 127 2.0 5.0 0.01 0.29 0.29 90 1008.7
20260904032538 56 134 1.0 5.0 0.01 0.29 0.29 90 1008.8
20260904032036 56 112 1.0 5.0 0.00 0.28 0.28 90 1008.8
20260904031538 56 147 2.0 5.0 0.00 0.28 0.28 90 1008.8
20260904031033 56 126 2.0 6.0 0.00 0.28 0.28 90 1008.7
20260904030534 56 120 2.0 6.0 0.00 0.28 0.28 90 1008.7
20260904030033 56 118 2.0 5.0 0.00 0.28 0.28 90 1008.7
20260904025531 56 91 2.0 4.0 0.00 0.28 0.28 90 1008.6
20260904025031 56 108 2.0 3.0 0.00 0.28 0.28 90 1008.7
20260904024530 56 118 1.0 3.0 0.00 0.28 0.28 90 1008.7
20260904024029 56 101 1.0 4.0 0.00 0.28 0.28 90 1008.6
20260904023754 56 121 1.0 4.0 0.00 0.28 0.28 89 1008.6
20260904023247 56 120 1.0 5.0 0.01 0.28 0.28 89 1008.6
20260904022520 57 116 2.0 5.0 0.01 0.28 0.28 89 1008.6
20260904022236 57 126 2.0 8.0 0.01 0.28 0.28 89 1008.5
20260904021512 57 132 4.0 8.0 0.03 0.28 0.28 89 1008.5
20260904021007 57 136 5.0 8.0 0.04 0.28 0.28 89 1008.7
20260904020725 57 129 5.0 8.0 0.05 0.28 0.28 89 1008.7
20260904020226 57 120 4.0 8.0 0.05 0.28 0.28 89 1008.7
20260904015457 57 148 4.0 9.0 0.07 0.28 0.28 89 1008.8
20260904014956 57 160 4.0 9.0 0.08 0.28 0.28 89 1008.8
20260904014455 57 134 3.0 6.0 0.08 0.28 0.28 89 1008.8
20260904013952 57 101 3.0 5.0 0.09 0.28 0.28 91 1008.8
20260904013454 57 129 3.0 6.0 0.09 0.28 0.28 91 1008.9
20260904012952 57 118 2.0 6.0 0.08 0.27 0.28 91 1008.9
20260904012452 57 140 2.0 4.0 0.08 0.27 0.27 91 1008.8
20260904011951 57 136 2.0 4.0 0.08 0.27 0.27 90 1008.9
20260904011449 57 131 1.0 4.0 0.06 0.25 0.25 90 1009.1
20260904010951 57 155 1.0 3.0 0.05 0.24 0.24 90 1009.0
20260904010443 57 169 2.0 4.0 0.04 0.23 0.23 89 1009.1
20260904005940 58 193 3.0 7.0 0.04 0.23 0.23 88 1009.0
20260904005439 58 151 4.0 8.0 0.02 0.21 0.21 86 1009.0
20260904004940 58 142 6.0 12.0 0.01 0.20 0.20 85 1008.8
20260904004708 59 156 8.0 12.0 0.01 0.20 0.20 83 1008.7
20260904003939 59 119 7.0 12.0 0.00 0.19 0.19 82 1008.8
20260904003656 60 131 6.0 12.0 0.00 0.19 0.19 82 1008.9
20260904002938 60 143 5.0 10.0 0.00 0.19 0.19 81 1008.9
20260904002438 60 138 6.0 10.0 0.00 0.19 0.19 80 1008.9
20260904002156 60 158 7.0 11.0 0.00 0.19 0.19 80 1008.8
20260904001430 60 141 8.0 14.0 0.00 0.19 0.19 80 1008.8
20260904000930 60 143 8.0 14.0 0.00 0.20 0.19 79 1008.8
20260904000432 60 142 7.0 12.0 0.00 0.20 0.19 80 1008.8
20260903235923 60 110 7.0 12.0 0.00 0.22 0.19 80 1008.8
20260903235424 60 133 7.0 12.0 0.00 0.24 0.19 80 1008.9
20260903234923 60 125 7.0 11.0 0.00 0.26 0.19 81 1008.9
20260903234419 60 126 7.0 12.0 0.00 0.27 0.19 81 1008.8
20260903233917 59 149 6.0 12.0 0.00 0.30 0.19 81 1008.8
20260903233416 59 136 5.0 12.0 0.00 0.35 0.19 82 1008.9
20260903232909 59 145 4.0 8.0 0.00 0.37 0.19 82 1008.9
20260903232410 59 176 4.0 7.0 0.00 0.41 0.19 82 1009.0
20260903231909 59 159 4.0 8.0 0.00 0.41 0.19 82 1009.0
20260903231407 59 157 5.0 9.0 0.00 0.41 0.19 81 1009.0
20260903231130 59 124 6.0 10.0 0.00 0.42 0.19 81 1009.0
20260903230404 59 129 6.0 11.0 0.00 0.42 0.19 81 1009.1
20260903225903 59 126 6.0 11.0 0.00 0.43 0.19 81 1009.3
20260903225403 59 118 7.0 11.0 0.05 0.43 0.19 81 1009.2
20260903224902 59 149 7.0 11.0 0.07 0.43 0.19 81 1009.3
20260903224401 59 156 7.0 11.0 0.15 0.43 0.19 83 1009.4
20260903223859 58 140 7.0 11.0 0.18 0.43 0.19 83 1009.5
20260903223401 58 129 6.0 11.0 0.19 0.43 0.19 84 1009.5
20260903222858 58 142 6.0 11.0 0.19 0.43 0.19 86 1009.5
20260903222359 58 143 5.0 10.0 0.19 0.43 0.19 84 1009.5
20260903221856 58 143 3.0 10.0 0.19 0.43 0.19 86 1009.5
20260903221359 56 143 5.0 17.0 0.19 0.44 0.19 85 1009.5
20260903220856 56 158 9.0 17.0 0.19 0.44 0.19 85 1009.6
20260903220355 56 172 9.0 15.0 0.19 0.44 0.19 86 1009.8
20260903215853 56 139 10.0 18.0 0.18 0.43 0.19 88 1010.0
20260903215842 57 170 9.0 18.0 0.14 0.41 0.15 88 1009.9
20260903214853 58 254 3.0 15.0 0.11 0.38 0.11 84 1009.6
20260903214351 60 234 4.0 16.0 0.04 0.31 0.04 81 1009.4
20260903213851 61 245 9.0 16.0 0.01 0.28 0.02 75 1009.3
20260903213842 63 272 9.0 15.0 0.00 0.27 0.01 70 1009.0
20260903212849 65 281 7.0 15.0 0.00 0.27 0.00 62 1008.9
20260903212615 65 187 5.0 11.0 0.00 0.28 0.00 61 1008.8
20260903211848 65 233 5.0 11.0 0.00 0.30 0.00 61 1008.9
20260903211349 65 231 6.0 12.0 0.00 0.31 0.00 62 1008.9
20260903210847 65 178 7.0 14.0 0.00 0.31 0.00 61 1008.8
20260903210346 65 193 7.0 14.0 0.00 0.31 0.00 62 1008.9
20260903205845 65 207 9.0 16.0 0.00 0.31 0.00 62 1008.8
20260903205344 65 193 11.0 20.0 0.00 0.31 0.00 60 1008.8
20260903204845 65 199 10.0 20.0 0.00 0.31 0.00 61 1008.8
20260903204343 65 156 9.0 17.0 0.00 0.31 0.00 60 1008.8
20260903204105 65 218 9.0 18.0 0.00 0.31 0.00 63 1008.9
20260903203342 65 172 11.0 18.0 0.00 0.32 0.00 63 1009.0
20260903202843 65 177 11.0 20.0 0.00 0.32 0.00 62 1009.1
20260903202341 65 173 11.0 20.0 0.00 0.32 0.00 62 1009.0
20260903201842 66 185 11.0 20.0 0.00 0.32 0.00 60 1009.1
20260903201342 66 172 11.0 19.0 0.00 0.32 0.00 62 1009.1
20260903201100 66 145 12.0 22.0 0.00 0.32 0.00 62 1009.0
20260903200337 65 179 11.0 22.0 0.00 0.32 0.00 62 1009.2
20260903195835 66 172 11.0 22.0 0.00 0.32 0.00 64 1009.3
20260903195331 66 260 11.0 21.0 0.00 0.32 0.00 66 1009.1
20260903194829 67 161 10.0 22.0 0.00 0.32 0.00 62 1009.2
20260903194329 67 162 9.0 22.0 0.00 0.32 0.00 67 1009.3
20260903194305 66 183 9.0 15.0 0.00 0.32 0.00 67 1009.3
20260903193326 64 155 9.0 15.0 0.00 0.32 0.00 68 1009.5
20260903192820 63 190 9.0 19.0 0.00 0.32 0.00 70 1009.5
20260903192317 63 197 9.0 19.0 0.00 0.32 0.00 70 1009.6
20260903192034 63 203 9.0 18.0 0.00 0.32 0.00 71 1009.6
20260903191315 62 234 9.0 18.0 0.00 0.32 0.00 73 1009.8
20260903190810 62 197 10.0 17.0 0.00 0.32 0.00 73 1009.9
20260903190310 61 178 11.0 19.0 0.00 0.33 0.00 74 1010.1
20260903185810 61 159 10.0 19.0 0.00 0.33 0.00 74 1010.0
20260903185530 62 194 9.0 16.0 0.00 0.33 0.00 74 1010.0
20260903184808 62 160 9.0 18.0 0.00 0.33 0.00 76 1010.0
20260903184307 60 146 10.0 18.0 0.00 0.33 0.00 76 1010.0
20260903183806 60 173 10.0 18.0 0.00 0.34 0.00 76 1010.1
20260903183305 60 145 9.0 18.0 0.00 0.34 0.00 75 1010.1
20260903182804 60 157 8.0 14.0 0.00 0.34 0.00 76 1010.1
20260903182306 59 183 8.0 14.0 0.00 0.34 0.00 77 1010.1
20260903181805 59 165 8.0 14.0 0.00 0.34 0.00 77 1010.0
20260903181302 59 135 8.0 14.0 0.00 0.34 0.00 77 1010.0
20260903180801 59 149 10.0 16.0 0.00 0.34 0.00 78 1010.0
20260903180305 59 181 9.0 16.0 0.00 0.35 0.00 77 1010.0
20260903175801 59 164 9.0 15.0 0.00 0.35 0.00 78 1010.0
20260903175300 59 148 8.0 15.0 0.00 0.35 0.00 77 1010.0
20260903174800 59 174 7.0 13.0 0.00 0.35 0.00 77 1010.0
20260903174258 59 205 6.0 12.0 0.00 0.35 0.00 77 1010.0
20260903174027 59 175 6.0 14.0 0.00 0.35 0.00 77 1010.0
20260903173522 59 191 7.0 14.0 0.00 0.36 0.00 77 1009.9
20260903173019 59 152 6.0 12.0 0.00 0.38 0.00 77 1009.8
20260903172524 59 164 7.0 16.0 0.00 0.39 0.00 77 1009.9
20260903171754 59 180 7.0 16.0 0.00 0.40 0.00 78 1009.8
20260903171254 59 155 7.0 14.0 0.00 0.42 0.00 79 1009.8
20260903170753 59 163 7.0 16.0 0.00 0.45 0.00 78 1009.8
20260903170254 59 158 8.0 16.0 0.00 0.47 0.00 77 1009.7
20260903165751 59 164 8.0 13.0 0.00 0.48 0.00 78 1009.7
20260903165518 58 154 8.0 15.0 0.00 0.49 0.00 79 1009.8
20260903164752 58 164 8.0 15.0 0.00 0.50 0.00 79 1009.8
20260903164249 58 174 7.0 14.0 0.00 0.50 0.00 80 1009.9
20260903164013 58 153 7.0 14.0 0.00 0.50 0.00 81 1009.9
20260903163248 58 163 6.0 12.0 0.00 0.50 0.00 82 1009.9
20260903162749 58 174 6.0 12.0 0.00 0.50 0.00 82 1009.9
20260903162240 58 151 6.0 13.0 0.00 0.50 0.00 83 1009.9
20260903161740 58 184 6.0 13.0 0.00 0.51 0.00 83 1010.0
20260903161241 57 128 7.0 14.0 0.00 0.51 0.00 84 1010.0
20260903160950 57 135 7.0 12.0 0.00 0.51 0.00 84 1010.1
20260903160832 57 164 8.0 14.0 0.00 0.51 0.00 84 1010.0
20260903155737 57 176 6.0 11.0 0.00 0.52 0.00 84 1010.1
20260903155236 56 172 6.0 11.0 0.00 0.53 0.00 85 1010.3
20260903154737 56 187 6.0 11.0 0.00 0.54 0.00 85 1010.2
20260903154233 56 145 7.0 15.0 0.00 0.54 0.00 85 1010.2
20260903153731 56 172 8.0 15.0 0.00 0.54 0.00 85 1010.2
20260903153231 56 169 7.0 12.0 0.00 0.54 0.00 85 1010.3
20260903152723 56 203 6.0 11.0 0.00 0.54 0.00 86 1010.3
20260903152223 56 167 6.0 11.0 0.00 0.54 0.00 86 1010.2
20260903151724 56 137 5.0 10.0 0.00 0.54 0.00 85 1010.3
20260903151217 56 142 5.0 10.0 0.00 0.54 0.00 86 1010.1
20260903150720 56 154 4.0 10.0 0.00 0.54 0.00 86 1010.2
20260903150217 56 153 3.0 7.0 0.00 0.54 0.00 87 1010.2
20260903145719 55 160 3.0 7.0 0.00 0.54 0.00 87 1010.1
20260903145217 55 172 3.0 7.0 0.00 0.54 0.00 87 1010.1
20260903144718 55 145 4.0 9.0 0.00 0.54 0.00 87 1010.1
20260903144216 55 163 4.0 9.0 0.00 0.54 0.00 87 1010.2
20260903143712 55 170 4.0 8.0 0.00 0.54 0.00 87 1010.2
20260903143211 55 168 5.0 8.0 0.00 0.54 0.00 87 1010.3
20260903142711 55 197 5.0 10.0 0.00 0.54 0.00 87 1010.3
20260903142211 55 163 5.0 10.0 0.00 0.54 0.00 87 1010.2
20260903141710 55 146 4.0 9.0 0.00 0.54 0.00 87 1010.1
20260903141211 55 158 4.0 8.0 0.00 0.54 0.00 87 1010.0
20260903140709 55 170 5.0 12.0 0.00 0.54 0.00 87 1010.0
20260903140219 55 174 7.0 13.0 0.00 0.54 0.00 87 1009.9
20260903140209 55 166 6.0 12.0 0.00 0.54 0.00 87 1010.0
20260903135206 55 168 8.0 16.0 0.00 0.54 0.00 87 1009.8
20260903134708 55 153 8.0 16.0 0.00 0.54 0.00 87 1009.8
20260903134205 55 159 8.0 14.0 0.00 0.54 0.00 88 1009.8
20260903133924 55 149 8.0 13.0 0.00 0.54 0.00 88 1009.6
20260903133206 55 201 7.0 12.0 0.00 0.54 0.00 88 1009.6
20260903132702 55 181 6.0 11.0 0.00 0.54 0.00 87 1009.8
20260903132204 55 181 6.0 11.0 0.00 0.54 0.00 87 1009.8
20260903131922 55 176 6.0 11.0 0.00 0.54 0.00 87 1009.9
20260903131424 55 150 6.0 11.0 0.00 0.54 0.00 87 1009.9
20260903130700 55 186 5.0 9.0 0.00 0.54 0.00 87 1009.8
20260903130159 55 144 6.0 12.0 0.00 0.54 0.00 87 1009.9
20260903125659 55 156 6.0 12.0 0.00 0.54 0.00 87 1009.8
20260903125655 55 169 6.0 13.0 0.00 0.54 0.00 87 1009.7
20260903124913 55 168 6.0 13.0 0.00 0.54 0.00 87 1009.8
20260903124156 55 185 6.0 14.0 0.00 0.54 0.00 87 1009.9
20260903123919 55 133 7.0 14.0 0.00 0.54 0.00 88 1009.9
20260903123155 55 152 8.0 14.0 0.00 0.54 0.00 88 1009.9
20260903122920 55 170 8.0 14.0 0.00 0.54 0.00 88 1009.9
20260903122152 55 153 7.0 13.0 0.00 0.54 0.00 88 1010.0
20260903121653 55 144 7.0 13.0 0.00 0.54 0.00 89 1010.0
20260903121411 55 178 7.0 13.0 0.00 0.54 0.00 88 1009.8
20260903120652 55 153 8.0 14.0 0.00 0.54 0.00 89 1009.8
20260903120151 55 145 8.0 14.0 0.00 0.54 0.00 89 1009.9
20260903115654 55 140 8.0 13.0 0.00 0.54 0.00 89 1009.9
20260903115153 55 158 7.0 13.0 0.00 0.54 0.00 88 1010.4
20260903114651 55 163 7.0 10.0 0.00 0.54 0.00 88 1010.4
20260903114138 55 168 6.0 10.0 0.00 0.54 0.00 88 1010.5
20260903113857 55 175 4.0 10.0 0.00 0.54 0.00 88 1010.3
20260903113108 55 187 3.0 8.0 0.00 0.54 0.00 88 1010.3
20260903112559 55 171 3.0 7.0 0.00 0.54 0.00 88 1010.2
20260903112059 54 189 4.0 11.0 0.00 0.54 0.00 88 1010.2
20260903111600 55 196 5.0 11.0 0.00 0.54 0.00 88 1010.3
20260903111058 55 197 6.0 10.0 0.00 0.54 0.00 87 1010.2
20260903110557 55 176 6.0 10.0 0.00 0.54 0.00 87 1010.0
20260903110055 55 134 7.0 12.0 0.00 0.54 0.00 86 1010.0
20260903105558 55 177 7.0 12.0 0.00 0.54 0.00 87 1010.0
20260903105057 55 176 7.0 12.0 0.00 0.54 0.00 86 1010.0
20260903104553 55 202 6.0 12.0 0.00 0.54 0.00 86 1009.9
20260903104052 55 152 7.0 12.0 0.00 0.54 0.00 87 1010.1
20260903103552 55 153 7.0 12.0 0.00 0.54 0.00 87 1010.1
20260903103050 55 175 7.0 13.0 0.00 0.54 0.00 87 1010.2
20260903102551 55 170 7.0 13.0 0.00 0.54 0.00 87 1010.1
20260903102054 55 172 6.0 11.0 0.00 0.54 0.00 87 1010.2
20260903101552 55 176 7.0 14.0 0.00 0.54 0.00 87 1010.1
20260903101313 56 156 8.0 14.0 0.00 0.54 0.00 87 1010.2
20260903100549 55 228 8.0 13.0 0.00 0.54 0.00 87 1010.1
20260903100047 55 156 6.0 12.0 0.00 0.54 0.00 87 1010.7
20260903095548 55 172 6.0 11.0 0.00 0.54 0.00 88 1010.1
20260903095047 55 162 6.0 11.0 0.00 0.54 0.00 88 1010.2
20260903094545 55 164 6.0 11.0 0.00 0.54 0.00 88 1010.3
20260903094305 55 171 6.0 11.0 0.00 0.54 0.00 89 1010.3
20260903093545 55 149 5.0 11.0 0.00 0.54 0.00 89 1010.3
20260903093309 55 189 5.0 11.0 0.00 0.54 0.00 89 1010.4
20260903092542 55 160 5.0 9.0 0.00 0.54 0.00 89 1010.4
20260903092042 55 180 5.0 9.0 0.00 0.54 0.00 89 1010.6
20260903091540 55 182 5.0 10.0 0.00 0.54 0.00 88 1010.6
20260903091040 55 157 5.0 10.0 0.00 0.54 0.00 89 1010.6
20260903090538 55 185 5.0 10.0 0.00 0.54 0.00 88 1010.5
20260903090038 55 184 6.0 11.0 0.00 0.54 0.00 89 1010.6
20260903085538 55 200 6.0 12.0 0.00 0.54 0.00 89 1010.6
20260903085037 55 174 6.0 12.0 0.00 0.54 0.00 89 1010.6
20260903084756 55 194 5.0 11.0 0.00 0.54 0.00 88 1010.6
20260903084036 56 187 6.0 12.0 0.00 0.54 0.00 88 1010.6
20260903083535 56 176 6.0 12.0 0.00 0.54 0.00 87 1010.5
20260903083035 56 197 7.0 16.0 0.00 0.54 0.00 87 1010.5
20260903082534 56 145 7.0 16.0 0.00 0.54 0.00 86 1010.5
20260903082034 56 195 6.0 12.0 0.00 0.54 0.00 86 1010.5
20260903081530 56 210 6.0 11.0 0.00 0.54 0.00 86 1010.6
20260903081041 56 110 6.0 11.0 0.00 0.54 0.00 87 1010.6
20260903080532 56 162 6.0 11.0 0.00 0.54 0.00 87 1010.5
20260903080030 56 172 6.0 12.0 0.00 0.54 0.00 88 1010.5
20260903075530 56 149 7.0 12.0 0.00 0.54 0.00 88 1010.5
20260903075031 56 153 6.0 11.0 0.00 0.54 0.00 88 1010.5
20260903074530 56 172 6.0 10.0 0.00 0.54 0.00 89 1010.7
20260903074031 56 138 6.0 11.0 0.00 0.54 0.00 89 1010.6
20260903073532 56 171 7.0 13.0 0.00 0.54 0.00 90 1010.6
20260903073254 55 197 7.0 13.0 0.00 0.54 0.00 90 1010.7
20260903072531 55 160 7.0 13.0 0.00 0.54 0.00 90 1010.6
20260903072026 55 183 7.0 13.0 0.00 0.54 0.00 90 1010.5
20260903071527 55 126 6.0 12.0 0.00 0.54 0.00 90 1010.6
20260903071026 55 148 6.0 10.0 0.00 0.54 0.00 91 1010.6
20260903070745 55 128 5.0 9.0 0.00 0.54 0.00 91 1010.6
20260903070024 55 164 5.0 10.0 0.00 0.54 0.00 91 1010.6
20260903065525 55 138 6.0 10.0 0.00 0.54 0.54 91 1010.6
20260903065023 55 145 6.0 11.0 0.00 0.54 0.54 91 1010.7
20260903064518 55 153 6.0 11.0 0.00 0.54 0.54 92 1010.6
20260903064015 55 132 6.0 10.0 0.00 0.54 0.54 92 1010.5
20260903063515 54 143 5.0 10.0 0.00 0.54 0.54 93 1010.5
20260903063010 54 123 3.0 7.0 0.00 0.54 0.54 93 1010.6
20260903062509 53 144 2.0 4.0 0.00 0.54 0.54 93 1010.7
20260903062009 53 163 1.0 4.0 0.00 0.54 0.54 92 1010.6
20260903061506 54 172 2.0 3.0 0.00 0.54 0.54 93 1010.7
20260903061225 54 174 2.0 4.0 0.00 0.54 0.54 92 1010.7
20260903060500 54 166 2.0 4.0 0.00 0.54 0.54 93 1010.6
20260903060002 54 129 2.0 4.0 0.00 0.54 0.54 93 1010.5
20260903055458 54 150 1.0 5.0 0.00 0.54 0.54 92 1010.7
20260903055234 54 167 2.0 5.0 0.00 0.54 0.54 92 1010.4
20260903054456 54 157 3.0 5.0 0.00 0.54 0.54 92 1010.6
20260903053957 55 162 3.0 5.0 0.00 0.54 0.54 92 1010.6
20260903053452 55 187 3.0 6.0 0.00 0.54 0.54 92 1010.7
20260903052954 55 137 4.0 6.0 0.00 0.54 0.54 92 1010.7
20260903052935 55 155 4.0 6.0 0.00 0.54 0.54 92 1010.6
20260903051952 55 127 3.0 6.0 0.00 0.54 0.54 92 1010.7
20260903051452 55 140 2.0 5.0 0.00 0.54 0.54 93 1010.7
20260903050954 55 148 2.0 4.0 0.00 0.54 0.54 93 1010.6
20260903050448 54 144 2.0 4.0 0.00 0.54 0.54 93 1010.6
20260903045950 54 153 2.0 4.0 0.00 0.54 0.54 93 1010.7
20260903045449 54 137 2.0 4.0 0.00 0.54 0.54 93 1010.7
20260903044948 54 137 3.0 5.0 0.00 0.54 0.54 93 1010.6
20260903044446 54 129 3.0 5.0 0.00 0.54 0.54 92 1010.7